Location: Betra
(48.4113°N, 8.6634°E)
Time: 14:24:49
(UTC+00:00)

Cosmos 1850 Rocket - Pass Details

Date: 13 August 2024
Orbit: 751 x 783 km, 74.0° (Epoch: 17 September)

Event Time Altitude Azimuth Distance (km) Brightness Sun altitude
Rises 20:17:51 0° 329° (NNW) 3,263 8.8 -14.2°
Reaches altitude 10° 20:20:26 10° 321° (NW) 2,335 7.9 -14.5°
Maximum altitude 20:25:07 33° 259° (WSW) 1,298 5.5 -15.1°
Drops below altitude 10° 20:29:48 10° 196° (SSW) 2,332 6.2 -15.6°
Enters shadow 20:30:57 - 191° (SSW) 2,734 6.5 -15.8°
